Location: Oshawa
(43.9000°N, 78.8670°W)
Time: 19:03:36
(UTC-04:00)

ITAMSAT 1 - Visible Passes

Search period start: 29 May 2016 00:00
Search period end: 08 June 2016 00:00
Orbit: 784 x 797 km, 98.8° (Epoch: 29 May)

Date Brightness Start Highest point End Pass type
(mag) Time Alt. Az. Time Alt. Az. Time Alt. Az.
29 May 8.1 04:01:10 10° NNE 04:06:20 60° ESE 04:11:30 10° S visible
30 May 9.1 03:32:11 10° NNE 03:36:53 33° E 03:41:34 10° SSE visible
31 May 9.9 03:03:46 10° NE 03:07:18 18° E 03:10:50 10° SE visible
31 May 7.9 04:42:01 10° N 04:47:11 60° WNW 04:52:18 10° SSW visible
01 Jun 7.8 04:12:38 10° NNE 04:17:54 76° ESE 04:23:07 10° S visible
02 Jun 8.7 03:43:33 10° NNE 03:48:30 41° E 03:53:25 10° SSE visible
03 Jun 9.6 03:14:51 10° NE 03:18:58 23° E 03:23:03 10° SE visible
03 Jun 8.1 04:53:39 10° N 04:58:40 48° WNW 05:03:40 10° SW visible
04 Jun 10.2 02:47:14 10° ENE 02:49:18 12° E 02:51:21 10° ESE visible
04 Jun 7.7 04:24:10 10° NNE 04:29:26 86° WNW 04:34:41 10° SSW visible
05 Jun 8.3 03:54:57 10° NNE 04:00:05 52° E 04:05:11 10° S visible
06 Jun 9.3 03:26:05 10° NE 03:30:36 29° E 03:35:06 10° SSE visible
07 Jun 10.0 02:57:51 10° NE 03:00:59 16° E 03:04:06 10° SE visible
07 Jun 7.8 04:35:44 10° N 04:40:57 69° WNW 04:46:10 10° SSW visible
